Location: ????????
(54.9045°N, 39.1041°E)
Time: 14:13:40
(UTC+00:00)

Cosmos 1743 Rocket - Visible Passes

Search period start: 12 July 2024 00:00
Search period end: 22 July 2024 00:00
Orbit: 602 x 628 km, 82.6° (Epoch: 12 July)

Date Brightness Start Highest point End Pass type
(mag) Time Alt. Az. Time Alt. Az. Time Alt. Az.
18 Jul 6.3 23:44:34 10° ESE 23:46:53 14° E 23:49:11 10° NE visible
19 Jul 5.9 23:59:15 10° SE 00:02:37 22° E 00:06:00 10° NE visible
21 Jul 5.2 00:14:28 10° SSE 00:18:27 33° E 00:22:27 10° NNE visible
